Regional Weather Roundup
Issued by NWS

Home | Current Version | Previous Version | Text Only | Print | Product List | Glossary On
Versions: 1 2 3 4 5 6 7 8 9 10 11 12 13 14 15 16 17 18 19 20 21 22 23 24 25 26 27 28 29 30 31 32 33 34 35 36 37 38 39 40 41 42 43 44 45 46 47 48 49 50
000
ASUS43 KMPX 012310
RWRMN
WEATHER ROUNDUP FOR MINNESOTA
NATIONAL WEATHER SERVICE TWIN CITIES/CHANHASSEN MN
600 PM CDT TUE SEP 01 2015


NOTE: "FAIR" INDICATES FEW OR NO CLOUDS BELOW 12,000 FEET WITH NO
SIGNIFICANT WEATHER AND/OR OBSTRUCTIONS TO VISIBILITY. N/A MEANS
CURRENT SKY AND/OR WEATHER CONDITIONS ARE NOT AVAILABLE.

MNZ060>063-068>070-020000-
   Twin Cities Metro

CITY           SKY/WX    TMP DP  RH WIND       PRES   REMARKS
TWIN CITIES    CLOUDY    86  73  65 VRB5      29.88S HX  93
ST PAUL        CLOUDY    84  75  74 E3        29.88S HX  92
CRYSTAL        CLOUDY    86  72  62 S6        29.87S HX  92
BLAINE         CLOUDY    84  73  70 E5        29.89R HX  91
LAKEVILLE      PTSUNNY   84  73  70 S5        29.89S HX  91
EDEN PRAIRIE   CLOUDY    85  75  72 SE5       29.87F HX  93
SOUTH ST PAUL  CLOUDY    85  73  66 SE3       29.88S HX  92
LAKE ELMO      FAIR      82  77  83 CALM      29.90S HX  91
$$
MNZ001>005-007-008-013>017-022>024-027-028-020000-
   Northwest Minnesota

CITY           SKY/WX    TMP DP  RH WIND       PRES   REMARKS
BEMIDJI        MOSUNNY   82  55  39 E9        29.89S
HALLOCK        SUNNY     86  52  30 S8        29.81S
ROSEAU         SUNNY     82  59  44 SW7       29.85S
WARROAD        SUNNY     82  61  47 SW6       29.86S
THIEF RVR FALL SUNNY     84  52  32 S6        29.85S
CROOKSTON      SUNNY     86  48  26 S7        29.83S
FOSSTON        MOSUNNY   88  46  23 S6        29.87S
DETROIT LAKES  PTSUNNY   82  52  34 SE9       29.88S
MOORHEAD       MOSUNNY   88  52  29 E9        29.82F
PARK RAPIDS    CLOUDY    83  54  36 SE8       29.89S
MAHNOMEN       FAIR      83  56  40 SE7       29.86S
$$
MNZ006-009>011-018-025>026-020000-
   North Central Minnesota

CITY           SKY/WX    TMP DP  RH WIND       PRES   REMARKS
BAUDETTE       SUNNY     82  56  40 S6        29.87S
FLAG ISLAND    SUNNY     73  63  68 S7        29.84S
INTL FALLS     SUNNY     81  55  40 W3        29.89R
WASKISH        SUNNY     81  55  41 CALM      29.89S
BIG FORK       MOSUNNY   79  57  47 SW5       29.92R
LONGVILLE      PTSUNNY   79  59  50 CALM      29.91S
GRAND RAPIDS     N/A     79  61  53 CALM      29.92S
CRANE LAKE     SUNNY     79  50  36 SW1       29.91S
ORR            SUNNY     81  48  32 CALM      29.89R
COOK           SUNNY     81  57  44 CALM      29.92R
WALKER         FAIR      74  55  51 E3        29.90S
$$
MNZ012-019>021-037-020000-
   Northeast Minnesota

CITY           SKY/WX    TMP DP  RH WIND       PRES   REMARKS
DULUTH         PTSUNNY   81  68  64 SW8       29.92R
ELY            SUNNY     79  48  34 W5        29.93R
HIBBING        MOSUNNY   81  57  43 CALM      29.92R
EVELETH        MOSUNNY   77  59  53 CALM      29.93S
DULUTH HARBOR  MOSUNNY   84  72  65 SW8       29.88S
TWO HARBORS    MOSUNNY   82  72  69 SW3       29.89R
SILVER BAY     MOSUNNY   81  70  69 CALM      29.89R
GRAND MARAIS     N/A     62  59  90 SW7       29.88R
G MARAIS ARPRT SUNNY     75  52  43 W3        29.95S
$$
MNZ029>031-032-039>041-046>048-054>057-064-020000-
   West Central Minnesota

CITY           SKY/WX    TMP DP  RH WIND       PRES   REMARKS
FERGUS FALLS   PTSUNNY   82  68  61 SE8       29.83R
WHEATON        CLOUDY    79  70  73 SE10      29.86R
MORRIS         CLOUDY    79  72  78 S6        29.86R
ALEXANDRIA     CLOUDY    79  72  79 SE9       29.89S
ELBOW LAKE     FAIR      80  72  78 SE8       29.86R
WADENA         CLOUDY    82  63  51 E8        29.87F
GLENWOOD       CLOUDY    79  72  78 E8        29.87F
APPLETON       CLOUDY    79  70  73 SE5       29.86R
BENSON         CLOUDY    77  70  78 W8        29.87R
ORTONVILLE     CLOUDY    77  70  78 SE6       29.86R
MADISON        CLOUDY    75  72  88 CALM      29.88R
WILLMAR        LGT RAIN  75  73  94 SE18      29.87F
$$
MNZ033>034-036-042>043-049>051-058-059-020000-
   Central Minnesota

CITY           SKY/WX    TMP DP  RH WIND       PRES   REMARKS
ST CLOUD       CLOUDY    81  73  76 S6        29.90R
SAUK CENTRE    FAIR      77  72  84 CALM      29.90S
PAYNESVILLE    CLOUDY    77  73  85 S3        29.91R
AITKIN         CLOUDY    82  64  54 SE3       29.89F
PINE RIVER     CLOUDY    79  66  65 CALM      29.93S
BRAINERD       CLOUDY    80  59  48 E3        29.90S
STAPLES        CLOUDY    81  63  54 E3        29.89F
LONG PRAIRIE   FAIR      77  72  83 SE6       29.90S
LITTLE FALLS   CLOUDY    81  70  69 E3        29.89S
LITCHFIELD     CLOUDY    81  75  83 CALM      29.90S
BUFFALO        CLOUDY    82  72  72 CALM      29.89S
MAPLE LAKE     CLOUDY    82  76  82 CALM      29.90S
$$
MNZ037-044-045-052-053-020000-
   East Central Minnesota

CITY           SKY/WX    TMP DP  RH WIND       PRES   REMARKS
PRINCETON      CLOUDY    84  72  65 S5        29.89S
MORA           CLOUDY    79  68  69 CALM      29.91S
CAMBRIDGE        N/A     84  72  65 SE3       29.88S
RUSH CITY      CLOUDY    82  73  74 CALM      29.90S
MOOSE LAKE     PTSUNNY   81  70  69 CALM      29.89S
HINCKLEY       FAIR      82  72  69 CALM      29.90F
CLOQUET        PTSUNNY   81  64  57 SW5       29.92R
MCGREGOR       PTSUNNY   82  64  54 S5        29.91S
$$
MNZ071>073-080-081-089-090-097-098-020000-
   Southwest Minnesota

CITY           SKY/WX    TMP DP  RH WIND       PRES   REMARKS
MONTEVIDEO     CLOUDY    75  73  94 S10G16    29.87R
GRANITE FALLS  CLOUDY    76  73  91 SE7       29.89S
CANBY          LGT RAIN  78  71  80 SW5       29.90R
MARSHALL       CLOUDY    77  72  83 CALM      29.91R
REDWOOD FALLS  CLOUDY    83  73  72 E6        29.87R
OLIVIA         CLOUDY    73  70  88 CALM      29.89R
PIPESTONE      CLOUDY    77  72  83 CALM      29.91R
WINDOM         CLOUDY    81  70  69 CALM      29.90S
WORTHINGTON    CLOUDY    79  70  73 S8        29.90S
JACKSON        CLOUDY    81  72  74 S7        29.91S
TRACY          CLOUDY    79  73  84 NW3       29.90R
SLAYTON        CLOUDY    77  72  85 CALM      29.90S
$$
MNZ065>067-074>077-082>085-091>093-020000-
   South Central Minnesota

CITY           SKY/WX    TMP DP  RH WIND       PRES   REMARKS
MANKATO        PTSUNNY   81  72  74 S7        29.90S
NEW ULM        PTSUNNY   82  72  69 S9        29.88S
ST JAMES       CLOUDY    82  73  74 SE6       29.90R
FAIRMONT       CLOUDY    82  70  65 S8        29.90S
GLENCOE        PTSUNNY   85  76  74 S5        29.88R HX  95
FARIBAULT      PTSUNNY   82  73  74 S3        29.91R
OWATONNA       PTSUNNY   82  72  69 S6        29.92R
WASECA         PTSUNNY   79  70  73 S6        29.92S
ALBERT LEA     PTSUNNY   82  72  69 S7        29.92S
$$
MNZ078>079-086>088-094>096-020000-
   Southeast Minnesota

CITY           SKY/WX    TMP DP  RH WIND       PRES   REMARKS
ROCHESTER      CLOUDY    80  73  79 S8        29.94S
RED WING       CLOUDY    88  72  58 S8        29.88R HX  94
STANTON        PTSUNNY   85  73  67 SW6       29.89S HX  91
DODGE CENTER   PTSUNNY   81  73  78 SW7       29.94R
WINONA         PTSUNNY   86  72  62 SW5       29.91S HX  92
AUSTIN         PTSUNNY   82  73  74 S7        29.93S
PRESTON        PTSUNNY   81  71  72 S5        29.95S
$$
ABBREVIATIONS USED IN REMARKS
   TC - TEMPERATURES IN CELSIUS
  WCI - WIND CHILL INDEX
   HX - HEAT INDEX
  VSB - VISIBILITY
$$



USA.gov is the U.S. government's official web portal to all federal, state and local government web resources and services.